Stations météo

réclame
Mon MeteoGroup
Madrid/Getafe, Espagne (8224): Température de l'air & dewpoint: 16.01.2018 11:00:00 - 22.01.2018 11:00:00 (CET)Madrid/Getafe, Espagne (8224): Vitesse du vent: 16.01.2018 11:00:00 - 22.01.2018 11:00:00 (CET)Madrid/Getafe, Espagne (8224): Direction du vent: 16.01.2018 11:00:00 - 22.01.2018 11:00:00 (CET)Madrid/Getafe, Espagne (8224): reduced air pressure: 16.01.2018 11:00:00 - 22.01.2018 11:00:00 (CET)Madrid/Getafe, Espagne (8224): visibility: 16.01.2018 11:00:00 - 22.01.2018 11:00:00 (CET)
Date & Time tt [°C] td [°C] ff [km/h] ff [knt] dd ppp [hPa] vv [km]
22.01.2018 11:00:00 - - - - - - -
22.01.2018 10:00:00 4,2 3,3 0 0 N 1031,1 6
22.01.2018 09:00:00 - - - - - - -
22.01.2018 08:00:00 - - - - - - -
22.01.2018 07:00:00 4,2 3,8 0 0 N 1030,6 15
22.01.2018 06:00:00 - - - - - - -
22.01.2018 05:00:00 - - - - - - -
22.01.2018 04:00:00 - - - - - - -
22.01.2018 03:00:00 - - - - - - -
22.01.2018 02:00:00 - - - - - - -
22.01.2018 01:00:00 - - - - - - -
22.01.2018 00:00:00 - - - - - - -
21.01.2018 23:00:00 - - - - - - -
21.01.2018 22:00:00 - - - - - - -
21.01.2018 21:00:00 - - - - - - -
21.01.2018 20:00:00 - - - - - - -
21.01.2018 19:00:00 14,6 7,4 15 8 W 1027,4 40
21.01.2018 18:00:00 - - - - - - -
21.01.2018 17:00:00 - - - - - - -
21.01.2018 16:00:00 17,4 8,3 11 6 SW 1026,2 40
21.01.2018 15:00:00 - - - - - - -
21.01.2018 14:00:00 - - - - - - -
21.01.2018 13:00:00 14,0 7,8 5 3 W 1028,8 40
21.01.2018 12:00:00 - - - - - - -
21.01.2018 11:00:00 - - - - - - -
21.01.2018 10:00:00 7,6 4,9 9 5 ENE 1030,7 30
21.01.2018 09:00:00 - - - - - - -
21.01.2018 08:00:00 - - - - - - -
21.01.2018 07:00:00 5,4 3,6 9 5 NW 1030,3 20
21.01.2018 06:00:00 - - - - - - -
21.01.2018 05:00:00 - - - - - - -
21.01.2018 04:00:00 - - - - - - -
21.01.2018 03:00:00 - - - - - - -
21.01.2018 02:00:00 - - - - - - -
21.01.2018 01:00:00 - - - - - - -
21.01.2018 00:00:00 - - - - - - -
20.01.2018 23:00:00 - - - - - - -
20.01.2018 22:00:00 - - - - - - -
20.01.2018 21:00:00 - - - - - - -
20.01.2018 20:00:00 - - - - - - -
20.01.2018 19:00:00 11,4 2,9 13 7 W 1026,3 30
20.01.2018 18:00:00 - - - - - - -
20.01.2018 17:00:00 - - - - - - -
20.01.2018 16:00:00 12,4 3,6 11 6 SSW 1025,0 20
20.01.2018 15:00:00 - - - - - - -
20.01.2018 14:00:00 - - - - - - -
20.01.2018 13:00:00 8,4 5,0 16 9 SSW 1027,6 20
20.01.2018 12:00:00 - - - - - - -
20.01.2018 11:00:00 - - - - - - -
20.01.2018 10:00:00 5,0 3,2 5 3 S 1028,9 18
20.01.2018 09:00:00 - - - - - - -
20.01.2018 08:00:00 - - - - - - -
20.01.2018 07:00:00 4,0 2,0 2 1 SW 1027,8 15
20.01.2018 06:00:00 - - - - - - -
20.01.2018 05:00:00 - - - - - - -
20.01.2018 04:00:00 - - - - - - -
20.01.2018 03:00:00 - - - - - - -
20.01.2018 02:00:00 - - - - - - -
20.01.2018 01:00:00 - - - - - - -
20.01.2018 00:00:00 - - - - - - -
19.01.2018 23:00:00 - - - - - - -
19.01.2018 22:00:00 - - - - - - -
19.01.2018 21:00:00 - - - - - - -
19.01.2018 20:00:00 - - - - - - -
19.01.2018 19:00:00 12,0 4,2 5 3 WNW 1022,2 30
19.01.2018 18:00:00 - - - - - - -
19.01.2018 17:00:00 - - - - - - -
19.01.2018 16:00:00 14,8 4,8 5 3 SSW 1019,5 35
19.01.2018 15:00:00 - - - - - - -
19.01.2018 14:00:00 - - - - - - -
19.01.2018 13:00:00 10,2 4,6 0 0 N 1022,2 25
19.01.2018 12:00:00 - - - - - - -
19.01.2018 11:00:00 - - - - - - -
19.01.2018 10:00:00 3,6 1,2 5 3 ESE 1023,2 12
19.01.2018 09:00:00 - - - - - - -
19.01.2018 08:00:00 - - - - - - -
19.01.2018 07:00:00 3,6 1,6 4 2 N 1022,6 20
19.01.2018 06:00:00 - - - - - - -
19.01.2018 05:00:00 - - - - - - -
19.01.2018 04:00:00 - - - - - - -
19.01.2018 03:00:00 - - - - - - -
19.01.2018 02:00:00 - - - - - - -
19.01.2018 01:00:00 - - - - - - -
19.01.2018 00:00:00 - - - - - - -
18.01.2018 23:00:00 - - - - - - -
18.01.2018 22:00:00 - - - - - - -
18.01.2018 21:00:00 - - - - - - -
18.01.2018 20:00:00 - - - - - - -
18.01.2018 19:00:00 10,2 3,5 4 2 SW 1021,3 30
18.01.2018 18:00:00 - - - - - - -
18.01.2018 17:00:00 - - - - - - -
18.01.2018 16:00:00 14,0 4,3 0 0 N 1021,1 40
18.01.2018 15:00:00 - - - - - - -
18.01.2018 14:00:00 - - - - - - -
18.01.2018 13:00:00 10,8 3,4 4 2 E 1024,8 30
18.01.2018 12:00:00 - - - - - - -
18.01.2018 11:00:00 - - - - - - -
18.01.2018 10:00:00 5,4 1,5 9 5 NNE 1027,2 20
18.01.2018 09:00:00 - - - - - - -
18.01.2018 08:00:00 - - - - - - -
18.01.2018 07:00:00 1,8 0,2 5 3 ENE 1027,3 20
18.01.2018 06:00:00 - - - - - - -
18.01.2018 05:00:00 - - - - - - -
18.01.2018 04:00:00 - - - - - - -
18.01.2018 03:00:00 - - - - - - -
18.01.2018 02:00:00 - - - - - - -
18.01.2018 01:00:00 - - - - - - -
18.01.2018 00:00:00 - - - - - - -
17.01.2018 23:00:00 - - - - - - -
17.01.2018 22:00:00 - - - - - - -
17.01.2018 21:00:00 - - - - - - -
17.01.2018 20:00:00 - - - - - - -
17.01.2018 19:00:00 10,8 4,7 9 5 NNE 1026,0 40
17.01.2018 18:00:00 - - - - - - -
17.01.2018 17:00:00 - - - - - - -
17.01.2018 16:00:00 13,8 5,9 0 0 N 1024,2 40
17.01.2018 15:00:00 - - - - - - -
17.01.2018 14:00:00 - - - - - - -
17.01.2018 13:00:00 11,8 6,9 4 2 E 1026,3 30
17.01.2018 12:00:00 - - - - - - -
17.01.2018 11:00:00 - - - - - - -
17.01.2018 10:00:00 3,6 2,6 0 0 N 1027,7 10
17.01.2018 09:00:00 - - - - - - -
17.01.2018 08:00:00 - - - - - - -
17.01.2018 07:00:00 5,6 4,2 4 2 NE 1026,0 15
17.01.2018 06:00:00 - - - - - - -
17.01.2018 05:00:00 - - - - - - -
17.01.2018 04:00:00 - - - - - - -
17.01.2018 03:00:00 - - - - - - -
17.01.2018 02:00:00 - - - - - - -
17.01.2018 01:00:00 - - - - - - -
17.01.2018 00:00:00 - - - - - - -
16.01.2018 23:00:00 - - - - - - -
16.01.2018 22:00:00 - - - - - - -
16.01.2018 21:00:00 - - - - - - -
16.01.2018 20:00:00 - - - - - - -
16.01.2018 19:00:00 8,6 6,6 8 4 SSW 1027,0 30
16.01.2018 18:00:00 - - - - - - -
16.01.2018 17:00:00 - - - - - - -
16.01.2018 16:00:00 13,2 7,2 15 8 SW 1025,6 30
16.01.2018 15:00:00 - - - - - - -
16.01.2018 14:00:00 - - - - - - -
16.01.2018 13:00:00 9,2 4,4 0 0 N 1029,2 20
16.01.2018 12:00:00 - - - - - - -
16.01.2018 11:00:00 - - - - - - -

tt = Température de l'air
td = dewpoint
ff = Vitesse du vent
dd = Direction du vent
ppp = reduced air pressure
vv = visibility

stations d'obs. à proximité